Water Levels and Discharges  |  Reservoirs  |  Precipitation  |  Water quality Last site revision 09.05.2026 05:57
       
Water Levels and Discharges All data are without validation 09.05.2026 05:58:37
Křižanovice
River: Chrudimka
Crest of dam elevation: 405,82 [m asl]
Spillway elevation: 404,10 [m asl]
Maximum flood control capacity level: 404,10 [m asl]
Usable storage capacity level: 404,10 [m asl]
Ineffective storage level: 396,10 [m asl]
Vertical coordinate system: Balt p.v.
Remark:
Schema:
Go to balance data (monthly series)
Graf
Date Water level [m. n. m.] Outflow [m3s-1] QN
09.05.2026 05:50 403,02 0,58
09.05.2026 05:00 403,01 0,58
09.05.2026 04:00 403,00 0,57
09.05.2026 03:00 403,00 0,58
09.05.2026 02:00 402,99 0,58
09.05.2026 01:00 402,98 0,58
09.05.2026 00:00 402,98 0,57
08.05.2026 23:00 402,97 0,58
08.05.2026 22:00 402,96 0,58
08.05.2026 21:00 402,95 0,58
08.05.2026 20:00 402,95 0,58
08.05.2026 19:00 402,94 0,57
08.05.2026 18:00 402,94 0,58
08.05.2026 17:00 402,93 0,58
08.05.2026 16:00 402,91 0,58
08.05.2026 15:00 402,91 0,58
08.05.2026 14:00 402,91 0,58
08.05.2026 13:00 402,91 0,59
08.05.2026 12:00 402,90 0,59
08.05.2026 11:00 402,89 0,60
08.05.2026 10:00 402,89 0,63
08.05.2026 09:00 402,88 0,64
08.05.2026 08:00 402,90 0,73
08.05.2026 07:00 403,03 0,70
08.05.2026 06:00 403,02 0,71
07.05.2026 07:00 403,02 0,71
06.05.2026 07:00 403,01 0,73
05.05.2026 07:00 403,01 0,78
04.05.2026 07:00 403,03 0,82
03.05.2026 07:00 403,09 0,83
This information is also available through the application for mobile phones with Android OS (only in the Czech language)  Reservoir levels
  Povodí Labe, státní podnik © 2026 The system uses also data from measuring stations of   Czech Hydrometeorological Institute © 2026 Application developed by   MGE Data s.r.o. © 1996 - 2024